Regional Weather Roundup
Issued by NWS

Home | Current Version | Previous Version | Text Only | Print | Product List | Glossary On
Versions: 1 2 3 4 5 6 7 8 9 10 11 12 13 14 15 16 17 18 19 20 21 22 23 24 25 26 27
000
ASUS45 KPSR 221810
RWRAZ

ARIZONA HOURLY REGIONAL WEATHER ROUNDUP
NATIONAL WEATHER SERVICE PHOENIX AZ
1100 AM MST WED FEB 22 2017

NOTE: FAIR INDICATES FEW OR NO CLOUDS BELOW 12,000 FEET WITH NO
SIGNIFICANT WEATHER AND/OR OBSTRUCTIONS TO VISIBILITY.

AZZ001>003-036-221900-
NORTHWEST ARIZONA

CITY           SKY/WX    TMP DP  RH WIND       PRES   REMARKS
BULLHEAD CITY  SUNNY     63  52  67 SW6       29.97F
KINGMAN        SUNNY     64   9  11 S22G30    29.98F
6HR MIN TEMP:  42; 6HR MAX TEMP:  64;

$$

AZZ004>008-015-016-018-221900-
NORTH CENTRAL ARIZONA

CITY           SKY/WX    TMP DP  RH WIND       PRES   REMARKS
GRAND CANYON   MOSUNNY   49  36  61 SW18G24   30.07F
6HR MIN TEMP:  40; 6HR MAX TEMP:  49;

WILLIAMS       CLOUDY    48  25  40 S18G26    30.10F
PRESCOTT       PTSUNNY   55  45  68 SE13      30.09F
6HR MIN TEMP:  41; 6HR MAX TEMP:  55;

FLAGSTAFF      PTSUNNY   46  37  71 SW25      30.12F
6HR MIN TEMP:  40; 6HR MAX TEMP:  47;

PAYSON         PTSUNNY   57  43  58 CALM      30.16S
PAGE           MOSUNNY   55  36  48 W5        29.93F
6HR MIN TEMP:  45; 6HR MAX TEMP:  56;

$$

AZZ009>014-017-221900-
NORTHEAST ARIZONA

CITY           SKY/WX    TMP DP  RH WIND       PRES   REMARKS
WINSLOW        MOSUNNY   61  41  47 E9        30.06F
6HR MIN TEMP:  36; 6HR MAX TEMP:  62;

SAINT JOHNS    PTSUNNY   58  37  45 NE5       30.10F
6HR MIN TEMP:  32; 6HR MAX TEMP:  58;

WINDOW ROCK    CLOUDY    53  37  54 SW9       30.11
6HR MIN TEMP:  39; 6HR MAX TEMP:  53;

SHOW LOW       MOSUNNY   54  36  50 S20       30.15F
$$

AZZ023-221900-
GREATER PHOENIX AREA

CITY           SKY/WX    TMP DP  RH WIND       PRES   REMARKS
PHOENIX        PTSUNNY   68  54  60 S5        30.02F
6HR MIN TEMP:  54; 6HR MAX TEMP:  68;

BUCKEYE        MOSUNNY   66  59  77 E10       30.02F
GLENDALE       PTSUNNY   64  57  77 CALM      30.04F
LUKE AFB       PTSUNNY   66  53  63 CALM      30.01F
6HR MIN TEMP:  53; 6HR MAX TEMP:  67; 6HR PCP: TRACE;

DEER VALLEY    PTSUNNY   67  53  61 VRB7      30.02F
6HR MIN TEMP:  53; 6HR MAX TEMP:  67;

SCOTTSDALE     MOSUNNY   67  51  56 S6        30.04F
6HR MIN TEMP:  54; 6HR MAX TEMP:  67;

MESA-FALCON    PTSUNNY  N/A N/A N/A W6        30.01F
CHANDLER       SUNNY     64  54  68 VRB5      30.04F
$$

AZZ027-028-221900-
SOUTHWEST MARICOPA COUNTY AND PINAL COUNTY

CITY           SKY/WX    TMP DP  RH WIND       PRES   REMARKS
CASA GRANDE    NOT AVBL
GILA BEND      FAIR      69  54  60 CALM      30.01F
6HR MIN TEMP:  52; 6HR MAX TEMP:  69;

$$

AZZ503-504-507>509-221900-
SOUTHEAST ARIZONA

CITY           SKY/WX    TMP DP  RH WIND       PRES   REMARKS
TUCSON         SUNNY     70  44  39 CALM      30.07F
6HR MIN TEMP:  50; 6HR MAX TEMP:  70;

DAVIS-MONTHAN  SUNNY     70  42  35 SW3       30.06F
6HR MIN TEMP:  48; 6HR MAX TEMP:  70;

RYAN FIELD     SUNNY     68  46  45 CALM      30.07F
NOGALES        SUNNY     71  38  29 S5        30.10F
6HR MIN TEMP:  39; 6HR MAX TEMP:  72;

SIERRA VISTA   SUNNY     70  36  28 SE7       30.14F
6HR MIN TEMP:  43; 6HR MAX TEMP:  70;

DOUGLAS        SUNNY     66  35  31 CALM      30.12F
6HR MIN TEMP:  35; 6HR MAX TEMP:  66;

SAFFORD        SUNNY     66  42  41 SE6       30.06F
6HR MIN TEMP:  42; 6HR MAX TEMP:  67;

$$

AZZ020-021-025-026-031-221900-
SOUTHWEST ARIZONA

CITY           SKY/WX    TMP DP  RH WIND       PRES   REMARKS
YUMA           PTSUNNY   73  43  33 NW5       29.99F
6HR MIN TEMP:  56; 6HR MAX TEMP:  73;

$$

CAZ031-033-041-043-047-048-061-221900-
SOUTHERN CALIFORNIA

CITY           SKY/WX    TMP DP  RH WIND       PRES   REMARKS
DOWNTOWN L.A.  MOSUNNY   62  47  57 CALM      30.13F
6HR MIN TEMP:  51; 6HR MAX TEMP:  63;

L.A. AIRPORT   MOSUNNY   58  50  75 W13       30.14F
6HR MIN TEMP:  52; 6HR MAX TEMP:  58;

SAN DIEGO      PTSUNNY   61  49  64 NW13      30.18R
6HR MIN TEMP:  57; 6HR MAX TEMP:  62; 6HR PCP: TRACE;

BURBANK        SUNNY     56  46  69 SE3       30.12F
6HR MIN TEMP:  47; 6HR MAX TEMP:  56;

ONTARIO        PTSUNNY   57  48  72 SW10      30.13S
6HR MIN TEMP:  51; 6HR MAX TEMP:  57;

RIVERSIDE      MOSUNNY   57  49  74 W7        30.13F
6HR MIN TEMP:  50; 6HR MAX TEMP:  57;

PALM SPRINGS   SUNNY     68  50  52 VRB5      29.99F
6HR MIN TEMP:  53; 6HR MAX TEMP:  68;

EL CENTRO NAS  PTSUNNY   75  38  26 W13       29.99F
6HR MIN TEMP:  52; 6HR MAX TEMP:  75;

BLYTHE         PTSUNNY   64  54  69 CALM      29.98F
6HR MIN TEMP:  56; 6HR MAX TEMP:  64;

NEEDLES        SUNNY     67  52  58 CALM      29.96F
6HR MIN TEMP:  55; 6HR MAX TEMP:  67;

$$

NVZ020-UTZ003-221900-
SOUTHERN NEVADA-UTAH

CITY           SKY/WX    TMP DP  RH WIND       PRES   REMARKS
LAS VEGAS      MOSUNNY   60  29  30 S16G25    29.92F
6HR MIN TEMP:  55; 6HR MAX TEMP:  60;

SALT LAKE CITY CLOUDY    39  33  79 SE7       29.95F WCI  34
6HR MIN TEMP:  36; 6HR MAX TEMP:  39;

$$

NMZ009-TXZ055-221900-
NEW MEXICO-WEST TEXAS

CITY           SKY/WX    TMP DP  RH WIND       PRES   REMARKS
ALBUQUERQUE    CLOUDY    58  35  42 W3        30.10F
6HR MIN TEMP:  42; 6HR MAX TEMP:  58;

EL PASO        MOSUNNY   72  34  24 SW15      30.09F
6HR MIN TEMP:  47; 6HR MAX TEMP:  72;

$$


........................KEY........................
SKY/WX - SKY CONDITION/WEATHER
TMP    - TEMPERATURE IN FAHRENHEIT
DP     - DEW POINT IN FAHRENHEIT
RH     - RELATIVE HUMIDITY IN PERCENT
WIND   - DIRECTION AND SPEED IN MILES PER HOUR (MPH)
VRB    - VARIABLE WIND DIRECTION
PRES   - MEAN SEA LEVEL PRESSURE IN INCHES OF MERCURY
         F - FALLING PRESSURE   R - RISING PRESSURE
         S - STEADY PRESSURE
VSB    - VISIBILITY IN MILES
HX     - HEAT INDEX IN FAHRENHEIT
WCI    - WIND CHILL INDEX IN FAHRENHEIT
TC     - TEMPERATURE IN CELSIUS WHICH IS ALSO KNOWN AS
         TEMPERATURE IN CENTIGRADE
AFB    - AIR FORCE BASE
         LUKE AFB IS LUKE AIR FORCE BASE
         DAVIS-MONTHAN IS DAVIS-MONTHAN AIR FORCE BASE
NAS    - NAVAL AIR STATION
         EL CENTRO NAS IS EL CENTRO NAVAL AIR STATION
N/A    - NOT AVAILABLE





USA.gov is the U.S. government's official web portal to all federal, state and local government web resources and services.